GW4147 Weather Reports


Display with metric or nautical units.
time (UTC)temp
F
wind
direction
speed
MPH
gust
MPH
rain 1hr
in
rain 24hr
in
rain mn
in
humidity
%
barometer
mb
20260505200737 85 225 5.0 9.0 0.00 0.00 0.00 59 1005.8
20260505200234 85 213 8.0 13.0 0.00 0.00 0.00 57 1005.8
20260505195729 85 242 6.0 14.0 0.00 0.00 0.00 60 1005.7
20260505195227 85 224 5.0 12.0 0.00 0.00 0.00 58 1005.5
20260505194724 85 249 5.0 9.0 0.00 0.00 0.00 60 1005.9
20260505194220 85 213 13.0 14.0 0.00 0.00 0.00 58 1005.7
20260505193716 86 215 8.0 10.0 0.00 0.00 0.00 61 1005.6
20260505193213 85 239 2.0 8.0 0.00 0.00 0.00 62 1006.0
20260505192712 86 216 8.0 12.0 0.00 0.00 0.00 60 1005.9
20260505192209 85 214 9.0 13.0 0.00 0.00 0.00 62 1005.8
20260505191707 86 174 6.0 10.0 0.00 0.00 0.00 61 1005.5
20260505191205 85 263 2.0 9.0 0.00 0.00 0.00 64 1005.9
20260505190702 84 196 5.0 8.0 0.00 0.00 0.00 65 1005.6
20260505190201 83 220 8.0 13.0 0.00 0.00 0.00 64 1005.7
20260505185658 84 197 3.0 13.0 0.00 0.00 0.00 64 1005.6
20260505185154 84 220 4.0 8.0 0.00 0.00 0.00 64 1005.6
20260505184651 84 212 7.0 9.0 0.00 0.00 0.00 64 1005.6
20260505184148 84 229 3.0 11.0 0.00 0.00 0.00 63 1005.4
20260505183645 84 230 2.0 7.0 0.00 0.00 0.00 64 1005.8
20260505183142 84 239 5.0 7.0 0.00 0.00 0.00 64 1005.8
20260505182638 84 223 5.0 11.0 0.00 0.00 0.00 65 1005.9
20260505182136 83 168 2.0 11.0 0.00 0.00 0.00 65 1005.7
20260505181632 83 231 1.0 4.0 0.00 0.00 0.00 65 1005.6
20260505181130 83 180 7.0 12.0 0.00 0.00 0.00 65 1005.8
20260505180625 82 209 7.0 10.0 0.00 0.00 0.00 65 1005.9
20260505180123 83 185 6.0 7.0 0.00 0.00 0.00 65 1006.0
20260505175619 82 197 7.0 10.0 0.00 0.00 0.00 65 1005.8
20260505175115 82 256 3.0 9.0 0.00 0.00 0.00 68 1005.9
20260505174612 82 249 3.0 11.0 0.00 0.00 0.00 67 1005.8
20260505174108 81 135 4.0 8.0 0.00 0.00 0.00 69 1006.0
20260505173605 80 185 10.0 13.0 0.00 0.00 0.00 68 1005.9
20260505173102 80 207 8.0 12.0 0.00 0.00 0.00 69 1005.8
20260505172559 80 188 3.0 11.0 0.00 0.00 0.00 69 1005.8
20260505172056 80 213 6.0 11.0 0.00 0.00 0.00 68 1005.7
20260505171550 80 229 5.0 11.0 0.00 0.00 0.00 70 1005.8
20260505171048 79 205 6.0 9.0 0.00 0.00 0.00 71 1005.7
20260505170544 78 210 9.0 11.0 0.00 0.00 0.00 71 1005.7
20260505170041 78 205 6.0 6.0 0.00 0.00 0.00 73 1005.8
20260505165536 78 193 7.0 11.0 0.00 0.00 0.00 72 1005.8
20260505165032 78 207 4.0 12.0 0.00 0.00 0.00 72 1005.7
20260505164528 78 141 3.0 8.0 0.00 0.00 0.00 72 1005.8
20260505164026 78 201 5.0 11.0 0.00 0.00 0.00 72 1005.7
20260505163525 77 151 2.0 10.0 0.00 0.00 0.00 72 1005.7
20260505163021 77 198 8.0 14.0 0.00 0.00 0.00 73 1005.7
20260505162514 77 146 4.0 8.0 0.00 0.00 0.00 74 1005.8
20260505162011 76 147 2.0 10.0 0.00 0.00 0.00 74 1005.7
20260505161508 76 215 5.0 12.0 0.00 0.00 0.00 74 1005.7
20260505161005 76 206 6.0 10.0 0.00 0.00 0.00 74 1005.7
20260505160503 77 202 9.0 14.0 0.00 0.00 0.00 73 1005.8
20260505152939 78 180 8.0 11.0 0.00 0.00 0.00 73 1005.5
20260505152438 77 276 3.0 8.0 0.00 0.00 0.00 76 1005.1
20260505151937 76 145 5.0 14.0 0.00 0.00 0.00 75 1005.2
20260505151433 76 207 6.0 11.0 0.00 0.00 0.00 76 1005.2
20260505150931 75 193 3.0 11.0 0.00 0.00 0.00 77 1005.5
20260505150427 75 192 2.0 14.0 0.00 0.00 0.00 78 1005.4
20260505140357 73 183 5.0 11.0 0.00 0.00 0.00 81 1005.3
20260505124811 71 212 9.0 16.0 0.00 0.00 0.00 85 1004.7
20260505124308 71 160 5.0 11.0 0.00 0.00 0.00 85 1004.6
20260505123804 71 210 5.0 11.0 0.00 0.00 0.00 84 1004.8
20260505123301 70 190 7.0 10.0 0.00 0.00 0.00 85 1004.7
20260505122757 70 152 6.0 14.0 0.00 0.00 0.00 85 1004.4
20260505122255 70 177 6.0 10.0 0.00 0.00 0.00 85 1004.5
20260505121751 70 190 7.0 14.0 0.00 0.00 0.00 85 1004.3
20260505121247 70 205 11.0 12.0 0.00 0.00 0.00 85 1004.4
20260505120744 70 206 4.0 17.0 0.00 0.00 0.00 85 1004.3
20260505120240 70 212 4.0 9.0 0.00 0.00 0.00 85 1004.3
20260505115739 70 207 6.0 10.0 0.00 0.00 0.00 85 1004.4
20260505115237 70 187 7.0 13.0 0.00 0.00 0.00 85 1004.2
20260505114734 70 214 5.0 11.0 0.00 0.00 0.00 85 1004.2
20260505114230 70 216 5.0 14.0 0.00 0.00 0.00 85 1004.2
20260505113726 70 174 5.0 9.0 0.00 0.00 0.00 85 1004.2
20260505113223 70 222 3.0 8.0 0.00 0.00 0.00 85 1004.2
20260505112719 70 216 7.0 13.0 0.00 0.00 0.00 85 1004.0
20260505112218 70 131 3.0 9.0 0.00 0.00 0.00 85 1004.3
20260505111717 70 218 7.0 11.0 0.00 0.00 0.00 85 1004.4
20260505111213 70 209 3.0 11.0 0.00 0.00 0.00 84 1004.2
20260505110709 70 194 5.0 13.0 0.00 0.00 0.00 84 1004.1
20260505110207 70 183 7.0 10.0 0.00 0.00 0.00 84 1004.1
20260505102142 70 165 9.0 12.0 0.00 0.00 0.00 83 1004.3
20260505101641 70 186 6.0 9.0 0.00 0.00 0.00 83 1004.3
20260505101137 70 206 4.0 11.0 0.00 0.00 0.00 83 1004.2
20260505100633 71 149 2.0 17.0 0.00 0.00 0.00 83 1004.4
20260505100130 71 213 4.0 11.0 0.00 0.00 0.00 83 1004.1
20260505095626 71 232 4.0 14.0 0.00 0.00 0.00 83 1004.5
20260505095123 71 129 2.0 11.0 0.00 0.00 0.00 83 1004.2
20260505094620 71 207 15.0 16.0 0.00 0.00 0.00 83 1004.4
20260505094116 71 187 5.0 14.0 0.00 0.00 0.00 83 1004.1
20260505093612 71 163 7.0 11.0 0.00 0.00 0.00 83 1004.0
20260505093110 71 170 4.0 11.0 0.00 0.00 0.00 83 1004.3
20260505092607 71 125 3.0 12.0 0.00 0.00 0.00 83 1004.4
20260505092106 71 195 6.0 11.0 0.00 0.00 0.00 83 1004.3
20260505091602 71 187 4.0 13.0 0.00 0.00 0.00 82 1004.6
20260505091100 71 194 7.0 12.0 0.00 0.00 0.00 82 1004.6
20260505090558 71 124 3.0 13.0 0.00 0.00 0.00 82 1004.6
20260505090055 71 183 7.0 16.0 0.00 0.00 0.00 82 1004.6
20260505085553 71 202 5.0 11.0 0.00 0.00 0.00 82 1004.6
20260505085051 71 210 4.0 11.0 0.00 0.00 0.00 81 1004.6
20260505084549 71 174 12.0 15.0 0.00 0.00 0.00 81 1004.7
20260505084047 71 117 1.0 9.0 0.00 0.00 0.00 81 1004.6
20260505083543 71 238 5.0 11.0 0.00 0.00 0.00 81 1004.7
20260505083040 71 224 3.0 10.0 0.00 0.00 0.00 80 1004.5
20260505082536 71 167 5.0 10.0 0.00 0.00 0.00 80 1004.7
20260505082033 71 201 8.0 11.0 0.00 0.00 0.00 80 1004.8
20260505081529 71 305 2.0 8.0 0.00 0.00 0.00 79 1004.8
20260505081026 71 161 4.0 13.0 0.00 0.00 0.00 79 1004.8
20260505080522 71 161 10.0 11.0 0.00 0.00 0.00 79 1004.6
20260505080019 71 201 3.0 8.0 0.00 0.00 0.00 78 1004.7
20260505075515 72 298 2.0 11.0 0.00 0.00 0.00 78 1004.7
20260505075012 72 202 5.0 12.0 0.00 0.00 0.00 78 1004.8
20260505074510 72 204 6.0 11.0 0.00 0.00 0.00 77 1005.1
20260505074007 72 190 9.0 14.0 0.00 0.00 0.00 77 1005.1
20260505073504 72 128 3.0 11.0 0.00 0.00 0.00 76 1005.1
20260505073002 72 193 7.0 15.0 0.00 0.00 0.00 76 1005.2
20260505072457 72 153 4.0 11.0 0.00 0.00 0.00 75 1005.4
20260505071953 72 200 8.0 15.0 0.00 0.00 0.00 75 1005.5
20260505071449 72 190 9.0 15.0 0.00 0.00 0.00 75 1005.5
20260505070948 73 220 4.0 11.0 0.00 0.00 0.00 74 1005.3
20260505070444 73 207 6.0 11.0 0.00 0.00 0.00 74 1005.7
20260505065940 73 155 4.0 13.0 0.00 0.00 0.00 73 1005.6
20260505065437 73 207 5.0 11.0 0.00 0.00 0.00 73 1005.7
20260505064933 73 236 7.0 10.0 0.00 0.00 0.00 72 1005.6
20260505064430 73 153 3.0 13.0 0.00 0.00 0.00 72 1005.8
20260505063929 73 200 10.0 13.0 0.00 0.00 0.00 72 1005.9
20260505063425 73 185 5.0 16.0 0.00 0.00 0.00 71 1006.0
20260505062921 73 207 5.0 9.0 0.00 0.00 0.00 71 1005.8
20260505062419 74 180 9.0 18.0 0.00 0.00 0.00 71 1005.8
20260505061915 74 193 11.0 16.0 0.00 0.00 0.00 71 1006.1
20260505061414 74 206 6.0 10.0 0.00 0.00 0.00 71 1005.8
20260505060911 74 92 2.0 12.0 0.00 0.00 0.00 71 1005.9
20260505060408 73 192 6.0 8.0 0.00 0.00 0.00 71 1006.0
20260505055904 73 197 6.0 10.0 0.00 0.00 0.00 71 1006.1
20260505055400 73 200 8.0 9.0 0.00 0.00 0.00 71 1006.0
20260505054857 74 114 4.0 15.0 0.00 0.00 0.00 71 1005.9
20260505054354 74 178 12.0 14.0 0.00 0.00 0.00 71 1006.1
20260505053852 74 173 7.0 13.0 0.00 0.00 0.00 70 1006.3
20260505053349 74 84 3.0 14.0 0.00 0.00 0.00 70 1006.1
20260505052846 74 206 12.0 13.0 0.00 0.00 0.00 70 1006.0
20260505052343 74 197 12.0 17.0 0.00 0.00 0.00 70 1006.2
20260505051840 74 113 2.0 16.0 0.00 0.00 0.00 71 1006.2
20260505051337 74 198 7.0 7.0 0.00 0.00 0.00 71 1006.4
20260505050835 73 226 4.0 12.0 0.00 0.00 0.00 71 1006.4
20260505050334 73 195 4.0 9.0 0.00 0.00 0.00 71 1006.6
20260505041300 74 190 10.0 13.0 0.00 0.00 0.00 70 1006.8
20260505040758 74 145 5.0 11.0 0.00 0.00 0.00 70 1006.7
20260505040255 74 231 2.0 13.0 0.00 0.00 0.00 70 1006.7
20260505035752 74 135 3.0 13.0 0.00 0.00 0.00 69 1006.8
20260505035247 74 179 6.0 16.0 0.00 0.00 0.00 69 1006.7
20260505034745 74 176 4.0 13.0 0.00 0.00 0.00 69 1006.6
20260505034242 74 144 3.0 11.0 0.00 0.00 0.00 69 1006.8
20260505033738 74 169 6.0 21.0 0.00 0.00 0.00 69 1006.6
20260505033236 74 157 6.0 13.0 0.00 0.00 0.00 69 1006.4
20260505032734 74 152 8.0 12.0 0.00 0.00 0.00 69 1006.4
20260505032229 74 159 5.0 12.0 0.00 0.00 0.00 69 1006.7
20260505031727 74 180 8.0 12.0 0.00 0.00 0.00 68 1006.9
20260505031223 74 168 5.0 13.0 0.00 0.00 0.00 68 1007.0
20260505030720 74 169 4.0 13.0 0.00 0.00 0.00 68 1006.9
20260505030216 74 144 2.0 10.0 0.00 0.00 0.00 68 1006.9
20260505025712 74 177 2.0 11.0 0.00 0.00 0.00 68 1006.7
20260505025211 74 215 8.0 12.0 0.00 0.00 0.00 68 1006.7
20260505024709 74 152 11.0 12.0 0.00 0.00 0.00 68 1006.9
20260505024205 74 168 5.0 8.0 0.00 0.00 0.00 68 1006.9
20260505023703 74 119 3.0 15.0 0.00 0.00 0.00 68 1006.9
20260505023155 74 196 8.0 11.0 0.00 0.00 0.00 68 1006.8
20260505022652 74 180 5.0 9.0 0.00 0.00 0.00 68 1007.1
20260505022149 74 181 5.0 9.0 0.00 0.00 0.00 68 1007.1
20260505021645 75 203 6.0 8.0 0.00 0.00 0.00 67 1006.9
20260505021142 75 150 5.0 9.0 0.00 0.00 0.00 67 1007.0
20260505020638 75 155 5.0 11.0 0.00 0.00 0.00 67 1007.0
20260505020134 75 230 2.0 8.0 0.00 0.00 0.00 66 1006.9
20260505015632 75 186 7.0 14.0 0.00 0.00 0.00 66 1006.9
20260505015128 75 182 7.0 9.0 0.00 0.00 0.00 65 1006.8
20260505014625 75 135 4.0 10.0 0.00 0.00 0.00 65 1007.0
20260505014122 75 193 7.0 13.0 0.00 0.00 0.00 65 1006.8
20260505013619 75 184 13.0 13.0 0.00 0.00 0.00 65 1006.7
20260505013116 75 154 3.0 10.0 0.00 0.00 0.00 65 1006.7
20260505012614 75 189 7.0 11.0 0.00 0.00 0.00 65 1006.8
20260505012105 75 220 6.0 10.0 0.00 0.00 0.00 64 1006.9
20260505011601 75 176 5.0 15.0 0.00 0.00 0.00 64 1006.6
20260505011058 76 180 5.0 10.0 0.00 0.00 0.00 64 1006.8
20260505010553 76 174 10.0 13.0 0.00 0.00 0.00 64 1006.6
20260505010050 76 174 11.0 13.0 0.00 0.00 0.00 64 1006.9
20260505005546 76 127 5.0 9.0 0.00 0.00 0.00 63 1006.7
20260505005044 76 200 6.0 8.0 0.00 0.00 0.00 63 1006.6
20260505004541 76 156 2.0 9.0 0.00 0.00 0.00 63 1006.8
20260505004037 76 197 8.0 11.0 0.00 0.00 0.00 62 1006.8
20260505003535 77 179 3.0 13.0 0.00 0.00 0.00 62 1006.7
20260505003032 77 195 11.0 17.0 0.00 0.00 0.00 61 1006.7
20260505002532 77 181 7.0 18.0 0.00 0.00 0.00 61 1006.7
20260505002031 77 172 6.0 8.0 0.00 0.00 0.00 61 1006.9
20260505001528 77 75 3.0 12.0 0.00 0.00 0.00 61 1006.9
20260505001025 77 192 6.0 16.0 0.00 0.00 0.00 61 1006.9
20260505000523 78 182 7.0 11.0 0.00 0.00 0.00 60 1007.0
20260505000020 78 184 6.0 16.0 0.00 0.00 0.00 59 1006.9
20260504235517 79 199 8.0 11.0 0.00 0.00 0.00 59 1006.9
20260504235014 79 180 6.0 11.0 0.00 0.00 0.00 59 1007.0
20260504234511 79 161 2.0 12.0 0.00 0.00 0.00 59 1006.9
20260504234008 79 188 7.0 10.0 0.00 0.00 0.00 59 1007.1
20260504233503 78 181 8.0 14.0 0.00 0.00 0.00 59 1007.1
20260504233000 78 185 7.0 17.0 0.00 0.00 0.00 59 1007.1
20260504232457 78 235 4.0 13.0 0.00 0.00 0.00 58 1007.2
20260504231955 79 166 11.0 18.0 0.00 0.00 0.00 58 1007.1
20260504231450 79 166 12.0 15.0 0.00 0.00 0.00 58 1007.1
20260504230946 79 80 3.0 11.0 0.00 0.00 0.00 58 1007.3
20260504230443 79 209 11.0 13.0 0.00 0.00 0.00 58 1007.4
20260504225942 80 192 4.0 11.0 0.00 0.00 0.00 57 1007.5
20260504225438 81 200 13.0 15.0 0.00 0.00 0.00 55 1007.2
20260504224936 80 183 4.0 19.0 0.00 0.00 0.00 56 1007.3
20260504224432 81 203 13.0 20.0 0.00 0.00 0.00 55 1007.5
20260504223930 80 198 10.0 19.0 0.00 0.00 0.00 55 1007.5
20260504223425 80 186 9.0 11.0 0.00 0.00 0.00 56 1007.6
20260504222921 80 170 11.0 17.0 0.00 0.00 0.00 55 1007.7
20260504222419 81 163 9.0 18.0 0.00 0.00 0.00 55 1007.5
20260504221917 81 181 9.0 15.0 0.00 0.00 0.00 55 1007.5
20260504221413 81 184 5.0 13.0 0.00 0.00 0.00 54 1007.5
20260504220910 81 180 8.0 16.0 0.00 0.00 0.00 55 1007.5
20260504220407 82 166 5.0 17.0 0.00 0.00 0.00 55 1007.7
20260504215904 81 186 3.0 15.0 0.00 0.00 0.00 54 1007.6
20260504215400 81 187 8.0 13.0 0.00 0.00 0.00 54 1007.7
20260504214857 81 166 11.0 18.0 0.00 0.00 0.00 55 1007.8
20260504214354 81 177 6.0 9.0 0.00 0.00 0.00 55 1008.1
20260504213850 81 193 6.0 10.0 0.00 0.00 0.00 55 1007.9
20260504213346 80 158 4.0 17.0 0.00 0.00 0.00 55 1008.1
20260504212844 80 165 10.0 20.0 0.00 0.00 0.00 54 1008.4
20260504212339 81 193 8.0 17.0 0.00 0.00 0.00 54 1008.5
20260504211838 81 187 5.0 12.0 0.00 0.00 0.00 55 1008.3
20260504211333 80 148 4.0 11.0 0.00 0.00 0.00 57 1008.4
20260504210831 80 173 12.0 16.0 0.00 0.00 0.00 55 1008.7
20260504210328 80 198 6.0 16.0 0.00 0.00 0.00 55 1008.7
20260504205825 80 201 6.0 14.0 0.00 0.00 0.00 54 1008.7
20260504205323 80 221 5.0 11.0 0.00 0.00 0.00 54 1008.9
20260504204821 80 186 8.0 14.0 0.00 0.00 0.00 54 1009.0
20260504204319 80 191 8.0 11.0 0.00 0.00 0.00 55 1009.1
20260504203818 80 181 11.0 14.0 0.00 0.00 0.00 54 1009.2
20260504203315 80 195 8.0 15.0 0.00 0.00 0.00 54 1009.2
20260504202811 81 176 7.0 13.0 0.00 0.00 0.00 54 1009.5
20260504202308 80 195 13.0 17.0 0.00 0.00 0.00 53 1009.5
20260504201804 81 194 6.0 13.0 0.00 0.00 0.00 53 1009.5
20260504201302 80 228 6.0 13.0 0.00 0.00 0.00 54 1009.5